Simultaneous Nadir Overpasses (SNOs) Predictions

Prediction of SNOs between GOES-17 and NOAA-19 Satellite Orbit:

Table of predicted SNOs for the next 14.0 days since TLE Epoch: 2/7/2020
Index Date Time (GOES-17) GOES-17 Lat,Lon NOAA-19 Lat,Lon Distance(km) Time Diff (sec)
1 02/08/2020 02:31:18 -0.04,-137.21 0.64,-134.21 342.31 80
2 02/10/2020 14:49:32 0.04,-137.23 0.49,-139.15 220.20 80
3 02/11/2020 14:40:33 0.04,-137.22 -0.18,-136.31 104.76 80
4 02/12/2020 14:28:53 0.04,-137.22 -0.85,-133.46 429.59 80
5 02/14/2020 02:59:05 -0.04,-137.20 -1.01,-141.32 470.75 80
6 02/15/2020 02:47:25 -0.04,-137.19 -0.33,-138.47 146.22 80
7 02/16/2020 02:38:25 -0.04,-137.18 0.30,-135.61 178.19 80
8 02/18/2020 14:56:39 0.04,-137.17 0.82,-140.56 387.50 80
9 02/19/2020 14:45:00 0.05,-137.15 0.15,-137.72 63.72 80
10 02/20/2020 14:36:00 0.05,-137.14 -0.46,-134.86 260.11 80




NCC Satellite Simultaneous Nadir Overpasses (SNOs) Prediction Service
